Weather in Lesnoye Matyunino

Russia / Ulyanovsk Oblast     53°26′30″N   47°25′11″E
temp.,
°C
wind,
m/s
gust,
m/s
humid.,
%
clouds,
%
prec.,
mm/h
press.,
hPa
HPBL,
m
12 may, wed
wed1201:00+12nw009079 0.0 102614
04:00+13ene2588100 0.0 1025147
07:00+15ese41175100 0.0 1025575
10:00+14e41379100 0.2 1025709
13:00+15ese51169100 0.1 1026808
16:00+13e31191100 3.1 1026514
19:00+14e3108690 0.4 1025312
22:00+13ese3118597 0.4 1025274
13 may, thu
thu1301:00+12e288890 0.0 1024142
04:00+11e398168 0.0 1024162
07:00+13e41268100 0.0 1023306
10:00+18se61152100 0.0 1023648
13:00+20ese71260100 0.1 1023902
16:00+21ese71453100 0.1 10221348
19:00+20sse5124770 0.0 10211012
22:00+16se4156768 0.7 1021455
14 may, fri
fri1401:00+15se41469100 0.1 1021357
04:00+13se22785 0.1 102134
07:00+15se256883 0.0 1022147
10:00+21sse4749100 0.0 1022461
13:00+25sse593580 0.0 1021899
16:00+26s6103347 0.0 10211394
19:00+23sse41147100 0.0 1021645
22:00+19sse413575 0.0 1021361
15 may, sat
sat1501:00+16sse29605 0.0 1021169
04:00+14sse236132 0.0 102151
07:00+17sse28585 0.0 1021219
10:00+23s59355 0.0 1020543
13:00+27s69265 0.0 10201213
16:00+27s59265 0.0 10191793
19:00+24sse39421 0.0 1019369
22:00+18sse225763 0.0 101834
16 may, sun
sun1601:00+17sse2253100 0.0 101832
04:00+15sse22625 0.0 101829
07:00+18sse286168 0.0 1018207
10:00+25s5838100 0.0 1017668
13:00+27s51030100 0.0 10172091
16:00+27ssw5730100 0.0 10172097
19:00+24ssw374625 0.0 1016362
22:00+19ssw2265100 0.0 101719